Location: Brantley
(31.5822°N, 86.2569°W)
Time: 19:44:19
(UTC+00:00)

Vanguard 2 Rocket - All Passes

Search period start: 15 February 2026 00:00
Search period end: 25 February 2026 00:00
Orbit: 553 x 3286 km, 32.9° (Epoch: 15 February)

Date Brightness Start Highest point End Pass type
(mag) Time Alt. Az. Time Alt. Az. Time Alt. Az.
15 Feb - 00:26:16 10° WNW 00:34:37 54° SSW 00:39:36 10° SE visible
15 Feb - 14:17:06 10° SSE 14:26:07 15° SE 14:34:49 10° ESE daylight
15 Feb - 16:24:37 10° SSW 16:42:34 42° SSE 16:56:39 10° E daylight
15 Feb - 18:40:19 10° WSW 18:59:18 75° SSE 19:11:06 10° ENE daylight
15 Feb - 20:59:42 10° W 21:15:16 84° N 21:23:48 10° E daylight
15 Feb - 23:18:49 10° WNW 23:29:40 78° SSW 23:35:40 10° ESE daylight
16 Feb - 01:36:37 10° W 01:41:37 21° SW 01:45:19 10° S visible
16 Feb - 15:19:14 10° SSW 15:35:20 32° SE 15:49:35 10° E daylight
16 Feb - 17:32:37 10° SW 17:52:09 64° SSE 18:05:45 10° ENE daylight
16 Feb - 19:50:58 10° WSW 20:08:48 89° N 20:19:05 10° E daylight
16 Feb - 22:10:46 10° W 22:24:10 89° N 22:31:25 10° E daylight
17 Feb - 00:29:02 10° W 00:37:15 41° SW 00:42:18 10° SE visible
17 Feb - 14:15:21 10° S 14:28:15 22° SE 14:40:50 10° E daylight
17 Feb - 16:25:45 10° SW 16:44:46 52° SSE 16:59:51 10° E daylight
17 Feb - 18:42:25 10° WSW 19:01:51 83° SSE 19:14:06 10° ENE daylight
17 Feb - 21:02:12 10° W 21:18:08 84° N 21:26:55 10° E daylight
17 Feb - 23:21:21 10° WNW 23:32:26 64° SSW 23:38:36 10° SE daylight
18 Feb - 01:40:33 10° WSW 01:43:57 14° SW 01:46:44 10° SSW visible
18 Feb - 13:14:55 10° SSE 13:21:25 12° SE 13:28:03 10° ESE daylight
18 Feb - 15:19:53 10° SSW 15:37:23 41° SE 15:53:08 10° E daylight
18 Feb - 17:34:26 10° WSW 17:54:31 73° SSE 18:08:42 10° ENE daylight
18 Feb - 19:53:24 10° W 20:11:33 85° N 20:22:08 10° E daylight
18 Feb - 22:13:14 10° WNW 22:27:01 82° SSW 22:34:29 10° ESE daylight
19 Feb - 00:31:57 10° W 00:39:41 30° SW 00:44:42 10° SSE visible
19 Feb - 14:15:13 10° S 14:30:13 29° SE 14:45:11 10° E daylight
19 Feb - 16:27:17 10° SW 16:46:56 62° SSE 17:02:49 10° ENE daylight
19 Feb - 18:44:43 10° WSW 19:04:26 90° S 19:17:03 10° E daylight
19 Feb - 21:04:41 10° W 21:20:58 88° N 21:30:01 10° E daylight
19 Feb - 23:23:55 10° WNW 23:35:01 51° SSW 23:41:21 10° SE daylight
20 Feb - 13:12:20 10° S 13:23:24 19° SE 13:35:08 10° E daylight
20 Feb - 15:21:04 10° SW 15:39:23 50° SSE 15:56:15 10° ENE daylight
20 Feb - 17:36:32 10° WSW 17:56:55 82° SSE 18:11:36 10° ENE daylight
20 Feb - 19:55:52 10° W 20:14:19 85° N 20:25:11 10° E daylight
20 Feb - 22:15:40 10° WNW 22:29:43 71° SSW 22:37:25 10° ESE daylight
21 Feb - 00:35:12 10° W 00:41:55 22° SW 00:46:38 10° S visible
21 Feb - 14:15:54 10° SSW 14:32:04 38° SE 14:48:45 10° E daylight
21 Feb - 16:29:09 10° SW 16:49:07 72° SSE 17:05:39 10° ENE daylight
21 Feb - 18:47:08 10° W 19:07:04 86° N 19:20:01 10° E daylight
21 Feb - 21:07:06 10° W 21:23:45 86° SSW 21:33:02 10° ESE daylight
21 Feb - 23:26:34 10° W 23:37:23 39° SW 23:43:51 10° SSE daylight
22 Feb - 13:12:02 10° S 13:25:12 26° SE 13:39:48 10° E daylight
22 Feb - 15:22:39 10° SW 15:41:21 60° SSE 15:59:08 10° ENE daylight
22 Feb - 17:38:51 10° WSW 17:59:21 88° SSE 18:14:27 10° E daylight
22 Feb - 19:58:20 10° W 20:17:04 87° N 20:28:13 10° E daylight
22 Feb - 22:18:05 10° WNW 22:32:15 60° SSW 22:40:12 10° SE daylight
23 Feb - 00:39:09 10° W 00:44:00 15° SW 00:47:50 10° SSW visible
23 Feb - 12:10:30 10° SSE 12:18:49 15° SE 12:28:04 10° E daylight
23 Feb - 14:17:09 10° SSW 14:33:52 47° SE 14:51:49 10° ENE daylight
23 Feb - 16:31:17 10° WSW 16:51:22 80° SSE 17:08:26 10° ENE daylight
23 Feb - 18:49:37 10° W 19:09:43 85° N 19:22:59 10° E daylight
23 Feb - 21:09:28 10° WNW 21:26:22 77° SSW 21:35:57 10° ESE daylight
23 Feb - 23:29:25 10° W 23:39:33 30° SW 23:46:01 10° SSE daylight
24 Feb - 13:12:43 10° SSW 13:26:54 34° SE 13:43:28 10° E daylight
24 Feb - 15:24:35 10° SW 15:43:23 69° SSE 16:01:52 10° ENE daylight
24 Feb - 17:41:18 10° W 18:01:52 88° N 18:17:19 10° E daylight
24 Feb - 20:00:45 10° W 20:19:43 88° SSW 20:31:12 10° ESE daylight
24 Feb - 22:20:33 10° WNW 22:34:33 48° SW 22:42:43 10° SE daylight
